Freeport, IL

8:42 PM CDT on July 25, 2017 (GMT -0500)
Albertus

Weather History for KFEP - April, 2013

Change the Weather History Date:

Monday, April 15, 2013

  Actual Average Record
Temperature  
Mean Temperature 52 °F -  
Max Temperature 64 °F 55 °F 86 °F (2002)
Min Temperature 41 °F 36 °F 23 °F (2014)
Degree Days  
Heating Degree Days 12    
Growing Degree Days 2 (Base 50)    
Moisture  
Dew Point 46 °F    
Average Humidity 80    
Maximum Humidity 94    
Minimum Humidity 39    
Precipitation  
Precipitation 0.58 in - - ()
Sea Level Pressure  
Sea Level Pressure 29.83 in    
Wind  
Wind Speed 11 mph (SW)    
Max Wind Speed 29 mph    
Max Gust Speed 36 mph    
Visibility 8 miles    
Events Fog , Rain , Thunderstorm    
Averages and records for this station are not official NWS values.
T = Trace of Precipitation, MM = Missing Value Source: NWS Daily Summary

Daily Weather History Graph

Daily Weather History Graph

Search for Another Location

Airport or City:

Trip Planner

Search our weather history database for the weather conditions in past years. The results will help you decide how hot, cold, wet, or windy it might be!

Date:

Astronomy

Apr. 15, 2013 Rise Set
Actual Time 6:17 AM CDT 7:40 PM CDT
Civil Twilight 5:48 AM CDT 8:09 PM CDT
Nautical Twilight 5:12 AM CDT 8:44 PM CDT
Astronomical Twilight 4:35 AM CDT 9:21 PM CDT
Moon 9:39 AM CDT (4/15) No Moon Set
Length of Visible Light 14h 21m
Length of Day
13h 23m
Waxing Crescent, 25% of the Moon is Illuminated
Apr 15
Waxing Crescent
Apr 18
First Quarter
Apr 25
Full
May 2
Last Quarter
May 9
New

Hourly Weather History & Observations

Time (CDT) Temp. Windchill Dew Point Humidity Pressure Visibility Wind Dir Wind Speed Gust Speed Precip Events Conditions
12:15 AM 64.0 °F - 53.1 °F 67% 29.58 in 10.0 mi SSE 28.8 mph 35.7 mph N/A   Overcast
12:35 AM 62.6 °F - 54.7 °F 75% 29.64 in 10.0 mi West 20.7 mph 34.5 mph 0.02 in Rain , Thunderstorm Heavy Thunderstorms and Rain
12:55 AM 56.5 °F - 54.1 °F 92% 29.68 in 4.0 mi West 13.8 mph 21.9 mph 0.14 in Rain , Thunderstorm Thunderstorms and Rain
1:15 AM 55.4 °F - 52.9 °F 91% 29.70 in 4.0 mi WSW 6.9 mph - 0.06 in Rain , Thunderstorm Thunderstorms and Rain
1:35 AM 54.0 °F - 51.8 °F 92% 29.69 in 4.0 mi West 5.8 mph - 0.19 in Rain Rain
1:55 AM 54.0 °F - 51.8 °F 92% 29.70 in 5.0 mi WSW 3.5 mph - 0.24 in Rain Heavy Rain
2:15 AM 54.0 °F - 51.8 °F 92% 29.70 in 7.0 mi Calm Calm - 0.02 in Rain Rain
2:35 AM 54.0 °F - 52.0 °F 93% 29.70 in 10.0 mi Calm Calm - 0.02 in   Overcast
2:55 AM 54.0 °F - 52.0 °F 93% 29.71 in 10.0 mi South 5.8 mph - 0.02 in   Drizzle
3:15 AM 54.0 °F - 52.0 °F 93% 29.71 in 10.0 mi SSW 3.5 mph - N/A Rain Light Rain
3:35 AM 54.0 °F - 52.0 °F 93% 29.73 in 10.0 mi SSW 5.8 mph - N/A Rain Light Rain
3:55 AM 54.0 °F - 52.0 °F 93% 29.74 in 10.0 mi SSW 6.9 mph - 0.01 in   Overcast
4:15 AM 54.0 °F - 51.8 °F 92% 29.75 in 10.0 mi SSW 8.1 mph - N/A   Overcast
4:35 AM 54.0 °F - 52.0 °F 93% 29.75 in 10.0 mi SSW 6.9 mph - N/A   Overcast
4:55 AM 54.0 °F - 52.0 °F 93% 29.74 in 10.0 mi SSW 5.8 mph - N/A   Overcast
5:15 AM 53.6 °F - 51.8 °F 94% 29.75 in 7.0 mi SSW 8.1 mph - N/A   Overcast
5:35 AM 54.0 °F - 52.0 °F 93% 29.75 in 7.0 mi SSW 6.9 mph - N/A   Overcast
5:55 AM 54.0 °F - 52.0 °F 93% 29.74 in 7.0 mi SSW 5.8 mph - N/A   Overcast
6:15 AM 54.0 °F - 52.0 °F 93% 29.74 in 5.0 mi South 8.1 mph - N/A   Overcast
6:35 AM 52.0 °F - 50.2 °F 94% 29.77 in 3.0 mi South 6.9 mph - N/A   Overcast
6:55 AM 51.4 °F - 49.6 °F 94% 29.76 in 0.2 mi SSE 6.9 mph - N/A Fog Fog
7:15 AM 54.0 °F - 52.2 °F 94% 29.78 in 0.5 mi SSW 8.1 mph - N/A Fog Fog
7:35 AM 54.0 °F - 52.2 °F 94% 29.78 in 2.5 mi South 8.1 mph - N/A   Overcast
7:55 AM 54.0 °F - 52.2 °F 94% 29.78 in 5.0 mi South 6.9 mph - N/A   Scattered Clouds
8:15 AM 54.0 °F - 52.0 °F 93% 29.79 in 7.0 mi SSW 8.1 mph - N/A   Clear
8:35 AM 54.0 °F - 52.0 °F 93% 29.78 in 5.0 mi South 9.2 mph - N/A   Scattered Clouds
8:55 AM 54.0 °F - 51.8 °F 92% 29.79 in 5.0 mi SSW 11.5 mph - N/A   Scattered Clouds
9:15 AM 54.0 °F - 51.1 °F 90% 29.79 in 10.0 mi SSW 9.2 mph - N/A   Clear
9:35 AM 54.0 °F - 51.1 °F 90% 29.80 in 10.0 mi SSW 10.4 mph - N/A   Clear
9:55 AM 54.1 °F - 50.4 °F 87% 29.81 in 10.0 mi SSW 15.0 mph - N/A   Scattered Clouds
10:15 AM 56.5 °F - 50.9 °F 82% 29.80 in 10.0 mi SSW 11.5 mph - N/A   Mostly Cloudy
10:35 AM 59.0 °F - 48.7 °F 69% 29.80 in 10.0 mi SSW 12.7 mph 18.4 mph N/A   Scattered Clouds
10:55 AM 59.0 °F - 47.3 °F 65% 29.80 in 10.0 mi SSW 12.7 mph - N/A   Mostly Cloudy
11:15 AM 59.0 °F - 48.0 °F 67% 29.81 in 10.0 mi SW 13.8 mph - N/A   Scattered Clouds
11:35 AM 59.0 °F - 49.3 °F 70% 29.81 in 10.0 mi SSW 15.0 mph - N/A   Scattered Clouds
11:55 AM 59.9 °F - 50.4 °F 71% 29.81 in 10.0 mi SW 13.8 mph - N/A   Clear
12:15 PM 61.7 °F - 48.9 °F 63% 29.81 in 10.0 mi SSW 15.0 mph 20.7 mph N/A   Clear
12:35 PM 61.7 °F - 49.1 °F 63% 29.81 in 10.0 mi SW 17.3 mph 21.9 mph N/A   Scattered Clouds
12:55 PM 61.7 °F - 48.0 °F 61% 29.82 in 10.0 mi SW 16.1 mph 23.0 mph N/A   Scattered Clouds
1:15 PM 64.0 °F - 45.0 °F 50% 29.82 in 10.0 mi SW 19.6 mph 24.2 mph N/A   Scattered Clouds
1:35 PM 61.7 °F - 38.3 °F 42% 29.82 in 10.0 mi SW 16.1 mph 24.2 mph N/A   Clear
1:55 PM 64.0 °F - 38.3 °F 39% 29.84 in 10.0 mi WSW 17.3 mph 25.3 mph N/A   Scattered Clouds
2:15 PM 61.7 °F - 40.3 °F 45% 29.84 in 10.0 mi West 20.7 mph 24.2 mph N/A   Scattered Clouds
2:35 PM 59.0 °F - 43.0 °F 55% 29.86 in 10.0 mi West 18.4 mph - N/A   Mostly Cloudy
2:55 PM 56.5 °F - 42.3 °F 59% 29.89 in 10.0 mi West 18.4 mph 27.6 mph N/A   Mostly Cloudy
3:15 PM 54.0 °F - 40.8 °F 61% 29.90 in 10.0 mi West 15.0 mph 21.9 mph N/A   Mostly Cloudy
3:35 PM 54.0 °F - 41.4 °F 62% 29.90 in 10.0 mi WSW 10.4 mph - N/A   Mostly Cloudy
3:55 PM 54.5 °F - 39.4 °F 57% 29.90 in 10.0 mi West 15.0 mph - N/A   Mostly Cloudy
4:15 PM 54.1 °F - 37.2 °F 53% 29.91 in 10.0 mi West 16.1 mph 24.2 mph N/A Thunderstorm Overcast
4:35 PM 54.0 °F - 36.9 °F 52% 29.91 in 10.0 mi West 13.8 mph 21.9 mph N/A   Overcast
4:55 PM 51.4 °F - 39.0 °F 63% 29.91 in 10.0 mi WNW 11.5 mph - N/A   Overcast
5:15 PM 48.7 °F - 38.1 °F 67% 29.91 in 10.0 mi West 10.4 mph - N/A Thunderstorm Overcast
5:35 PM 47.1 °F - 37.6 °F 69% 29.89 in 10.0 mi WNW 9.2 mph - N/A   Overcast
5:55 PM 46.4 °F 42.9 °F 37.9 °F 72% 29.90 in 10.0 mi WNW 6.9 mph - N/A   Overcast
6:15 PM 45.1 °F 42.8 °F 39.2 °F 80% 29.91 in 10.0 mi West 4.6 mph - N/A   Overcast
6:35 PM 45.0 °F 42.6 °F 40.1 °F 83% 29.91 in 10.0 mi West 4.6 mph - N/A   Light Drizzle
6:55 PM 43.7 °F 39.1 °F 39.9 °F 87% 29.91 in 10.0 mi West 8.1 mph - N/A   Light Drizzle
7:15 PM 43.7 °F 40.3 °F 40.1 °F 87% 29.92 in 10.0 mi WSW 5.8 mph - N/A   Overcast
7:35 PM 43.7 °F 40.3 °F 40.8 °F 90% 29.91 in 7.0 mi West 5.8 mph - 0.01 in Rain Light Rain
7:55 PM 43.7 °F 39.1 °F 41.0 °F 90% 29.91 in 10.0 mi West 8.1 mph - 0.01 in   Light Drizzle
8:15 PM 43.7 °F 39.7 °F 41.0 °F 90% 29.93 in 10.0 mi WSW 6.9 mph - N/A   Overcast
8:35 PM 43.3 °F 39.9 °F 39.6 °F 87% 29.96 in 10.0 mi SW 5.8 mph - N/A Rain Light Rain
8:55 PM 41.4 °F - 37.9 °F 88% 29.95 in 7.0 mi Calm Calm - 0.03 in Rain Light Rain
9:15 PM 41.2 °F 39.2 °F 37.8 °F 88% 29.97 in 7.0 mi SW 3.5 mph - 0.02 in Rain Light Rain
9:35 PM 41.2 °F 36.6 °F 38.3 °F 89% 29.99 in 4.0 mi WSW 6.9 mph - 0.08 in Rain Light Rain
9:55 PM 41.2 °F 36.6 °F 38.3 °F 89% 30.00 in 10.0 mi WSW 6.9 mph - 0.09 in Rain Light Rain
10:15 PM 41.2 °F 37.3 °F 38.5 °F 90% 30.01 in 5.0 mi SW 5.8 mph - 0.02 in Rain Light Rain
10:35 PM 41.2 °F 38.2 °F 38.3 °F 89% 30.00 in 10.0 mi WSW 4.6 mph - 0.02 in   Light Drizzle
10:55 PM 41.2 °F 37.3 °F 38.1 °F 89% 30.00 in 10.0 mi WSW 5.8 mph - 0.02 in   Overcast
11:15 PM 41.2 °F 39.2 °F 38.3 °F 89% 30.01 in 10.0 mi SW 3.5 mph - N/A Rain Light Rain
11:35 PM 41.2 °F 36.6 °F 38.3 °F 89% 30.02 in 10.0 mi WSW 6.9 mph - 0.01 in   Light Drizzle
11:55 PM 41.2 °F 37.3 °F 38.3 °F 89% 30.01 in 7.0 mi SW 5.8 mph - 0.02 in Rain Rain